STARLINK-34138, 63971

Orbit data source: Space-Track

STARLINK-34138, 63971 is a payload satellite owned by SpaceX/Seattle (US) in LEO that was launched on Tue, 13 May 2025 UTC via an FALCON 9 launch vehicle from the Air Force Eastern Test Range (AFETR). Payload-class satellites include a variety of spacecraft equipped with specific instruments for various scientific and technological missions. These include communications satellites like Starlink; space stations such as the ISS; scientific satellites like the Hubble; Earth observation satellites from companies like Planet Labs, Umbra, and HawkEye 360; GPS; miniature CubeSats for education and research; and military/defense satellites.

Loading next visibility...
Identifier
63971, 2025-099V
Orbit
LEO
Country
Flag of USUS
Related business
Manufacturer
SpaceX/Seattle
Mission
Operational Commercial Communications
Bus & Motor
STARLINK V2MO, Unknown motor
Mass
575 kg wet, ~530 kg dry
Launch date (UTC)
2025-05-13 (1 year ago)
Launch vehicle
FALCON 9
Launch site
Air Force Eastern Test Range (AFETR)
Object type
Payload
Rocket body
Debris
Shape & HBR
Box + 2 Pan, 17.7 m
Radar Cross Section
36.964 m², Large (>1 m²)

Expand to show TLE details & history
Last TLE update: 12 hours ago

TLE from 12 hours ago
0 STARLINK-34138
1 63971U 25099V   26171.45765639  .00023302  00000-0  85317-3 0  9990
2 63971  42.9976 312.3379 0001893 271.0436  89.0198 15.27597015 63092
Epoch: 2026-06-20T10:59Z
TLE epoch observation values (Epoch: 2026-06-20T10:59:01.512Z)
Latitude
-0.00005°
Longitude
-121.09045°
Altitude
482.751 km
Speed
7.626 km/s
True Right ascension
20h 49m 21s
True Declination
0° 00' 00"
Sunlit
Object was in full shadow at epoch
Visualization orbit readout
Latitude
Unknown
Longitude
Unknown
Altitude
Unknown
Speed
Unknown
Apparent Right ascension
Unknown
Apparent Declination
Unknown
Sunlit
N/A
Visualization observer readout
Local Sidereal Time
10:20:24
Azimuth
Unknown
Elevation
Unknown
Doppler factor
Unknown
Orbital elements
Apogee altitude
486.243 km
Perigee altitude
483.645 km
Semi-major axis
6,863.081 km
Eccentricity
0.00019
Inclination
42.9976°
RAAN
312.3379°
Arg. of periapsis
271.0436°
True anomaly
89.04149°
Mean anomaly
89.0198°
Eccentric anomaly
89.03064°
Mean motion
3.81737 °/min
Orbital period
94.31 mins
BSTAR
0.00085317
Loading maneuver chart data...
Computing Atmospheric mass density...
Loading historical data...
Loading historical data...
Loading historical data...
Loading historical data...
Loading historical data...
Loading historical data...
Loading historical data...

Documentation

Showing up to 5 results
|